Погода в Семиярке

Погода в Семиярке : погода сейчас, прогноз погоды и архив. Всё, что Вы хотите узнать о погоде в Семиярке!

Хотите узнать прогноз погоды в Семиярке? Тогда Вам сюда: Погода в Семиярке

Поиск расширенной информации на нашем сайте:

Другие новости

Новости СМИ2

Главная страница сайта

Новости сайта

02.10.2013

Напоминаем, что на нашем новом сайте вы можете получить высокодетализированные прогнозы погоды по пунктам России, СНГ и мира (включающие важные для авиации метеовеличины, такие как направление и скорость ветра, видимость, явления погоды, количество и форма облачности, нижняя и верхняя граница облачности), а также ознакомиться с разнообразными материалами по авиационной метеорологии и подборкой полезных ссылок на эту тему.

Сайт Метеоцентр.Азия посвящён разработке технологий оптимизации авиаметеорологического обслуживания, включая проектирование и перспективное создание нескольких автоматизированных авиаметеорологических систем:
- система выпуска высокодетальных прогностических карт явлений погоды для нижнего воздушного пространства по России и ближнему зарубежью;
- система верификации прогнозов TAF (выпускаемых синоптиками официальных АМСГ РФ и ближнего зарубежья) и AUTOTAF (выпускаемых сайтом Метеоцентр.Азия) - выявление ошибок, онлайн-сопоставление с фактической погодой METAR, автоматическое внесение коррективов в прогнозы при резком отклонении фактической погоды от прогноза, подсчёт оправдываемости прогнозов по элементам и в целом;
- система обработки, анализа и отображения авиаметеорологической информации для применения провайдерами метеорологической информации.


Погода в Семиярке - сегодня

Время (UTC), дата Ветер
(°,м/с) 
Видим.   Явления Облачность Т
(°С)
Тd
(°С)
f(%) Тe
(°С)
Pmin
(гПа)
dP
(гПа)
Po
(мм)
O2
(г/м3)
Тmin Tmax R s Состояние
почвы
06 20.06.17 020 (С) 20000 м    9/8 600 м кучево-дожд., верхняя 
[Cb calv|Ci fib]
+27.2 +15.9 50 +38  1004.2  -0.6  741  268  +21.5         
09 20.06.17 330 (СЗ) 20000 м    9/6 600 м кучево-дожд., средняя, верхняя 
[Cb calv|Ac trans|Ci fib]
+30 +14.5 39 +38  1002.8  -1.2  740  266           
12 20.06.17 030 (СВ) 20000 м    9/3 600 м кучево-дожд., средняя 
[Cb calv|Ac trans]
+27.9 +14.8 45 +37  1002.4  -0.5  739  267           
15 20.06.17 080 (В) 20000 м    9/6 600 м кучево-дожд., средняя, верхняя 
[Cb calv|Ac trans|Ci sp]
+25 +15.5 56 +35  1002.6  739  270    +31.1       
18 20.06.17 070 (В) н/о    3/3 600 м кучево-дожд. 
[Cb calv]
+20.1 +16.5 80 +32  1003  0.1  740  274    +31.1       
21 20.06.17 070 (В) н/о  зарница  6/6 600 м кучево-дожд. 
[Cb calv]
+18.1 +15.9 87 +30  1001.8  -1.3  739  276           
00 21.06.17 040 (СВ) 20000 м  в посл. час гроза{ливн. осадки}  9/9 600 м кучево-дожд. 
[Cb calv]
+17.1 +15.4 90 +27  1002.9  1.1  739  277           
03 21.06.17 040 (СВ) 20000 м    4/3 600 м средняя 
[Cu hum|Ac cast]
+22.6 +16.2 67 +34  1004.5  1.9  741  272         
06 21.06.17 240 (ЮЗ) 20000 м    4/4 600 м 
[Cu hum]
+25.9 +15.8 54 +36  1004.2  -0.2  741  269  +17.1       
09 21.06.17 030 (СВ) 20000 м    3/3 600 м 
[Cu hum]
+30.6 +12.7 33 +36  1002.9  -1  740  266           
12 21.06.17 080 (В) 20000 м    1/1 600 м 
[Cu med, cong]
+30.7 +11.2 30 +34  1003.2  0.3  740  266           
15 21.06.17 070 (В) 20000 м    9/0 средняя, верхняя 
[Ac lent|Ci fib]
+28.4 +12 36 +33  1003.2  -0.1  740  268    +32.5       
18 21.06.17 130 (ЮВ) н/о    3/0 верхняя 
[Ci fib]
+22.2 +15.4 65 +32  1003.7  0.1  740  273    +32.5       
21 21.06.17 120 (ЮВ) н/о  зарница  9/9 600 м кучево-дожд. 
[Cb calv]
+23.2 +16.2 65 +34  1002.8  -0.8  740  271           
00 22.06.17 030 (СВ) 20000 м    9/9 600 м кучево-дожд. 
[Cb calv]
+21.2 +15 68 +30  1003.2  0.3  740  273           
03 22.06.17 060 (СВ) 20000 м  в посл. час гроза{ливн. осадки} [макс. диам. градин 5 мм]  6/6 600 м кучево-дожд. 
[Cb calv]
+17.8 +16.1 90 +29  1004.7  1.3  741  277      30     
06 22.06.17 080 (В) 20000 м  {гроза, ливн. осадки}  9/6 600 м средняя 
[Sc|Ac cast]
+26.1 +14.9 50 +35  1004.3  0.1  741  269  +13.6    30     
09 22.06.17 320 (СЗ) 20000 м    6/4 600 м средняя, верхняя 
[Cu med, cong|Ac trans|Ci sp]
+29.5 +14 39 +37  1003.7  -0.5  740  266           
12 22.06.17 330 (СЗ) 20000 м    8/3 600 м верхняя 
[Cu med, cong|Ci sp]
+30.2 +11.1 31 +33  1003.6  740  267           
15 22.06.17 080 (В) 20000 м    6/3 600 м верхняя 
[Sc diur, vesp|Ci sp]
+25.5 +16.5 58 +37  1004.8  0.9  741  270    +30.9       
18 22.06.17 030 (СВ) н/о    4/0 верхняя 
[Ci fib]
+19.8 +15.3 75 +30  1006.1  742  275    +30.9       
21 22.06.17 030 (СВ) н/о    4/0 верхняя 
[Ci fib]
+18.1 +13.2 73 +25  1006.4  0.2  742  278           
00 23.06.17 010 (С) 20000 м    9/0 средняя, верхняя 
[Ac cast|Ci fib]
+17.3 +13.4 78 +24  1006.7  0.2  742  279           
03 23.06.17 090 (В) 20000 м    9/6 600 м кучево-дожд., средняя, верхняя 
[Cb calv|Ac trans|Ci sp]
+25.9 +10.9 39 +28  1006.5  0.3  742  271           
06 23.06.17 020 (С) 20000 м    8/0 средняя, верхняя 
[Ac As|Ci sp]
+27.5 +9.4 32 +28  1005.3  -1.1  742  270  +16.4         
Время (UTC), дата Ветер
(°,м/с) 
Видим.   Явления Облачность Т
(°С)
Тd
(°С)
f(%) Тe
(°С)
Pmin
(гПа)
dP
(гПа)
Po
(мм)
O2
(г/м3)
Тmin Tmax R s Состояние
почвы

Для получения пояснительной информации подведите курсор к названию столбца.

ПОГОДА в Семиярке - архив

Всё, что Вы хотите узнать о погоде в Семиярке - удобно и подробно!

Выберите нужную дату (начиная с 1 января 2015* года) и нажмите кнопку "Найти".
Будут отображены архивные сводки погоды по пункту Семиярка, начиная с указанной даты.


Отображать данные в формате CSV (для использования в таблицах Excel)


Внимание! Наш архив погоды предназначен исключительно для личного некоммерческого использования в познавательных целях. Если Вам необходимы официальные справки о состоянии погоды (для производственных, юридических, коммерческих и т.п. целей), обращайтесь в органы Росгидромета.

*Примечание: данная дата относится к архиву по метеостанциям СССР (Россия, СНГ, Балтия).
Архив по метеостанциям Зарубежной Европы и Азии (кроме Китая) хранится 10 дней, по другим регионам земного шара (Китай, Африка, Америка, Австралия, Океания) - 1 день.

Семиярка - район местоположения метеостанции


Название, широта, долгота, высота метеостанции:
Семиярка 50.9°ш. 78.3°д. 149 м над ур. моря [Казахстан]

Дополнительная информация

В oтличие oт бoльшинства пoгoдных сайтoв мы публикуем пoдрoбную метеoинфoрмацию в детальнoм прoфессиoнальнoм фoрмате.

Характеристики температуры и влажнoсти вoздуха измеряются на высoте 2 м в тени вдали oт зданий и деревьев.
Скoрoсть ветра измеряется на высoте 10 м (на урoвне рoста челoвека скoрoсть ветра ниже в 1.5-2 раза). Если метеoстанция нахoдится в гoрoде или в лесу, тo скoрoсть ветра занижена на 2-4 м/с пo сравнению с oткрытым местoм. Скoрoсть ветра над акватoриями крупных рек и oзёр, а также на вершинах хoлмoв на 2-5 м/с выше, чем в oбычных услoвиях.
Атмoсфернoе давление в разных тoчках местнoсти мoжет значительнo oтличаться oт давления на метеoстанции, в зависимoсти oт услoвий рельефа (при пoдъёме на 10 м давление пoнижается примернo на 1 мм рт.ст.).